星链-2615 (STARLINK-2615 )

导读

STARLINK-2615是美国太空探索技术公司星链计划的卫星,于2021年5月26日发射。星链计划旨在构建全球卫星互联网,为全球提供高速互联网服务。该卫星加入近地轨道卫星星座,推动了星链组网进程,也引发了近地轨道空间资源利用与天文观测干扰等相关讨论。

基本信息
目录编号:
48678
目录名称:
STARLINK-2615
国际标识:
2021-044AS
轨道中心:
EARTH
卫星名称:
星链-2615
卫星全名:
星链-2615 (STARLINK-2615 )
卫星状态:
在轨 (已飞行1849 天)
发射日期:
2021-05-26 UTC
国别 :
美国 (US)
星等 :
--
轨道信息
数据来源 国际轨道数据
星历时间: 2026-06-18T06:12:28+0800
17小时前
查看轨道信息
半长轴: 6848.862km
偏心率: 0.0000938
轨道倾角: 53.159°
近地点辐角 86.086°
升交点赤经 357.487°
平近点角 274.025°
近地点: 470.082km
远地点: 471.368km
周期: 94.013分钟
每日圈数: 15.317051
详细信息
固有亮度:
5
最大亮度:
2.5
卫星平台:
Starlink v1.5
覆盖范围:
全球
运营商:
太空探索技术公司
运营商所在国:
美国
制造商(研发单位):
太空探索技术公司
制造商所在国:
美国
使用方式:
暂无
卫星简介
星链(Starlink)计划是由太空探索技术公司(SpaceX)提出的一个巨型低轨卫星互联网星座项目,计划在2019年至2024年间在太空搭建由约1.2万颗卫星组成的“星链”网络,其中1584颗将部署在地球上空550千米处的近地轨道,并从2020年开始工作。该卫星仍在工作。
2D轨道图
3D轨道图
轨道高度分析图
轨道倾角分析图
轨道综合分析图
查看轨道综合分析图